Location: Nijmegen RU
(51.8233°N, 354.1314°E)
Time: 14:33:26
(UTC+01:00)

Envisat - Pass Details

Date: 26 February 2019
Orbit: 764 x 766 km, 98.2° (Epoch: 21 March)

Event Time Altitude Azimuth Distance (km) Brightness Sun altitude
Rises 21:10:15 0° 206° (SSW) 3,223 6.4 -21.2°
Reaches altitude 10° 21:13:06 10° 222° (SW) 2,302 5.8 -21.6°
Maximum altitude 21:16:53 21° 271° (W) 1,683 5.6 -22.1°
Drops below altitude 10° 21:20:41 10° 319° (NW) 2,315 6.2 -22.7°
Sets 21:23:35 0° 336° (NNW) 3,246 6.8 -23.1°
